Date String (YYYY-MM-DD hh:mm:ss) UTC,Instrument flags,Ambient pressure (hPa),Sample flow (lpm),Bypass flow (lpm),Sample temperature (°C),Ambient temperature (°C),ASC tube jacket temperature (°C),LED temperature (°C),Box temperature (°C),Sample RH (%),Span deviation,Mass concentration (μg/m³),Mass concentration (μg/m³),Mass concentration (μg/m³)
DateTimeUTC,F1_M11,P_M11,Q1_M11,Q2_M11,T1_M11,T2_M11,T3_M11,T4_M11,T5_M11,U1_M11,ZSPAN_M11,X2_M11,X0_M11,X1_M11
2022-08-16 04:00:00,,0831.1,4.99,0.00,30.7,27.8,00.0,39.4,31.8,34.7,0000.0,0003.06,0005.31,0002.60
2022-08-16 04:01:00,,0831.0,4.99,0.00,30.6,27.8,00.0,39.4,31.9,34.9,0000.0,0003.10,0005.37,0002.60
2022-08-16 04:02:00,,0831.0,5.01,0.00,30.6,28.0,00.0,39.3,31.9,35.2,0000.0,0003.12,0005.44,0002.61
2022-08-16 04:03:00,,0831.0,5.01,0.00,30.8,28.1,00.0,39.3,32.0,34.9,0000.0,0003.15,0005.49,0002.63
2022-08-16 04:04:00,,0831.0,5.00,0.00,31.0,28.2,00.0,39.3,32.1,33.9,0000.0,0003.12,0004.97,0002.63
2022-08-16 04:05:00,,0831.1,5.00,0.00,31.1,28.3,00.0,39.3,32.1,33.4,0000.0,0003.10,0004.20,0002.63
2022-08-16 04:06:00,,0831.2,5.00,0.00,31.2,28.4,00.0,39.3,32.1,34.4,0000.0,0003.07,0004.13,0002.61
2022-08-16 04:07:00,,0831.1,5.01,0.00,31.2,28.5,00.0,39.3,32.1,35.0,0000.0,0003.04,0004.04,0002.60
2022-08-16 04:08:00,,0831.2,5.00,0.00,31.3,28.6,00.0,39.4,32.2,34.4,0000.0,0003.04,0004.06,0002.59
2022-08-16 04:09:00,,0831.2,5.00,0.00,31.4,28.7,00.0,39.4,32.3,34.0,0000.0,0003.00,0004.01,0002.57
2022-08-16 04:10:00,,0831.2,5.00,0.00,31.4,28.8,00.0,39.4,32.2,33.6,0000.0,0003.03,0003.97,0002.58
2022-08-16 04:11:00,,0831.2,4.99,0.00,31.4,28.8,00.0,39.5,32.2,33.4,0000.0,0003.04,0004.09,0002.57
2022-08-16 04:12:00,,0831.1,5.00,0.00,31.4,28.9,00.0,39.5,32.3,33.5,0000.0,0003.02,0004.08,0002.57
2022-08-16 04:13:00,,0831.2,5.00,0.00,31.4,28.9,00.0,39.6,32.3,33.5,0000.0,0003.02,0004.14,0002.56
2022-08-16 04:14:00,,0831.2,5.01,0.00,31.4,29.0,00.0,39.6,32.3,33.7,0000.0,0003.00,0004.26,0002.54
2022-08-16 04:15:00,,0831.2,5.01,0.00,31.4,29.0,00.0,39.6,32.3,33.6,0000.0,0002.99,0004.20,0002.54
2022-08-16 04:16:00,,0831.1,5.00,0.00,31.4,29.1,00.0,39.7,32.3,33.2,0000.0,0002.97,0004.17,0002.54
2022-08-16 04:17:00,,0831.2,5.00,0.00,31.4,29.1,00.0,39.7,32.3,33.0,0000.0,0003.01,0004.29,0002.55
2022-08-16 04:18:00,,0831.2,4.99,0.00,31.3,29.2,00.0,39.7,32.4,32.8,0000.0,0003.04,0004.41,0002.56
2022-08-16 04:19:00,,0831.1,5.00,0.00,31.3,29.2,00.0,39.7,32.4,32.9,0000.0,0003.02,0004.35,0002.56
2022-08-16 04:20:00,,0831.2,5.00,0.00,31.3,29.2,00.0,39.7,32.4,34.2,0000.0,0003.06,0004.36,0002.59
2022-08-16 04:21:00,,0831.2,5.00,0.00,31.3,29.3,00.0,39.7,32.5,36.4,0000.0,0003.14,0004.48,0002.63
2022-08-16 04:22:00,,0831.1,5.02,0.00,31.6,29.0,00.0,39.7,32.6,35.9,0000.0,0003.17,0004.61,0002.67
2022-08-16 04:23:00,,0831.1,4.98,0.00,31.8,28.4,00.0,39.7,32.5,34.3,0000.0,0003.21,0004.65,0002.70
2022-08-16 04:24:00,,0831.1,5.00,0.00,31.9,28.0,00.0,39.6,32.4,33.5,0000.0,0003.21,0004.64,0002.72
2022-08-16 04:25:00,,0831.0,5.01,0.00,31.9,27.9,00.0,39.7,32.2,33.5,0000.0,0003.23,0004.60,0002.76
2022-08-16 04:26:00,,0831.0,4.99,0.00,31.8,27.9,00.0,39.7,32.2,33.6,0000.0,0003.27,0004.83,0002.78
2022-08-16 04:27:00,,0831.0,5.00,0.00,31.8,28.0,00.0,39.7,32.1,32.7,0000.0,0003.31,0005.05,0002.82
2022-08-16 04:28:00,,0831.0,4.99,0.00,31.7,28.2,00.0,39.7,32.2,32.4,0000.0,0003.33,0005.00,0002.84
2022-08-16 04:29:00,,0831.1,5.01,0.00,31.7,28.3,00.0,39.8,32.2,32.1,0000.0,0003.33,0004.95,0002.86
2022-08-16 04:30:00,,0831.0,5.01,0.00,31.6,28.4,00.0,39.8,32.2,32.1,0000.0,0003.36,0005.04,0002.88
2022-08-16 04:31:00,,0831.0,5.01,0.00,31.6,28.5,00.0,39.8,32.2,32.0,0000.0,0003.36,0005.08,0002.87
2022-08-16 04:32:00,,0831.0,5.00,0.00,31.5,28.6,00.0,39.8,32.2,32.0,0000.0,0003.30,0004.87,0002.84
2022-08-16 04:33:00,,0831.1,4.99,0.00,31.5,28.7,00.0,39.8,32.3,32.7,0000.0,0003.26,0004.66,0002.83
2022-08-16 04:34:00,,0831.0,5.00,0.00,31.5,28.8,00.0,39.8,32.3,33.2,0000.0,0003.24,0004.55,0002.82
2022-08-16 04:35:00,,0831.0,5.00,0.00,31.4,28.9,00.0,39.8,32.3,32.5,0000.0,0003.21,0004.45,0002.80
2022-08-16 04:36:00,,0831.0,5.00,0.00,31.4,28.9,00.0,39.8,32.3,32.8,0000.0,0003.21,0004.36,0002.80
2022-08-16 04:37:00,,0831.1,5.00,0.00,31.4,29.0,00.0,39.8,32.3,33.7,0000.0,0003.23,0004.48,0002.80
2022-08-16 04:38:00,,0831.0,5.01,0.00,31.3,29.0,00.0,39.8,32.4,33.4,0000.0,0003.21,0004.59,0002.79
2022-08-16 04:39:00,,0831.0,5.00,0.00,31.3,29.1,00.0,39.8,32.4,33.8,0000.0,0003.20,0004.61,0002.80
2022-08-16 04:40:00,,0831.0,5.00,0.00,31.3,29.1,00.0,39.8,32.4,33.3,0000.0,0003.23,0004.84,0002.81
2022-08-16 04:41:00,,0831.1,5.01,0.00,31.3,29.2,00.0,39.8,32.4,32.6,0000.0,0003.25,0005.18,0002.81
2022-08-16 04:42:00,,0831.1,5.00,0.00,31.3,29.2,00.0,39.8,32.4,32.3,0000.0,0003.24,0005.15,0002.82
2022-08-16 04:43:00,,0831.0,5.01,0.00,31.3,29.3,00.0,39.8,32.5,32.2,0000.0,0003.24,0005.16,0002.82
2022-08-16 04:44:00,,0831.0,4.99,0.00,31.2,28.9,00.0,39.8,32.4,32.2,0000.0,0003.26,0005.27,0002.82
2022-08-16 04:45:00,,0831.0,5.00,0.00,31.2,28.3,00.0,39.7,32.2,32.2,0000.0,0003.30,0005.65,0002.82
2022-08-16 04:46:00,,0831.0,5.00,0.00,31.1,27.9,00.0,39.6,32.1,32.3,0000.0,0003.33,0005.90,0002.85
2022-08-16 04:47:00,,0831.0,5.00,0.00,30.9,27.9,00.0,39.6,32.0,32.7,0000.0,0003.33,0005.97,0002.85
2022-08-16 04:48:00,,0831.1,4.99,0.00,30.8,27.9,00.0,39.6,32.0,33.6,0000.0,0003.33,0005.81,0002.85
2022-08-16 04:49:00,,0831.1,5.01,0.00,30.8,28.1,00.0,39.5,32.0,33.8,0000.0,0003.33,0005.61,0002.87
2022-08-16 04:50:00,,0831.1,5.00,0.00,30.7,28.2,00.0,39.5,32.0,33.5,0000.0,0003.32,0005.56,0002.87
2022-08-16 04:51:00,,0831.1,5.00,0.00,30.7,28.3,00.0,39.5,32.0,33.3,0000.0,0003.30,0005.43,0002.87
2022-08-16 04:52:00,,0831.0,5.00,0.00,30.7,28.4,00.0,39.4,32.0,33.2,0000.0,0003.30,0005.16,0002.89
2022-08-16 04:53:00,,0831.0,5.00,0.00,30.7,28.5,00.0,39.4,32.0,33.1,0000.0,0003.30,0005.12,0002.89
2022-08-16 04:54:00,,0831.1,5.00,0.00,30.6,28.6,00.0,39.4,32.0,33.2,0000.0,0003.30,0005.08,0002.89
2022-08-16 04:55:00,,0831.1,5.01,0.00,30.6,28.7,00.0,39.4,32.1,33.7,0000.0,0003.29,0005.02,0002.90
2022-08-16 04:56:00,,0831.1,5.00,0.00,30.6,28.8,00.0,39.4,32.1,33.6,0000.0,0003.27,0004.74,0002.92
2022-08-16 04:57:00,,0831.2,5.00,0.00,30.6,28.8,00.0,39.3,32.1,33.7,0000.0,0003.27,0004.72,0002.92
2022-08-16 04:58:00,,0831.1,5.00,0.00,30.6,28.9,00.0,39.3,32.1,34.7,0000.0,0003.28,0005.03,0002.95
2022-08-16 04:59:00,,0831.1,5.00,0.00,30.7,29.0,00.0,39.3,32.2,34.7,0000.0,0003.26,0004.93,0002.96
